This is the latest recevied weather packets stored in our database for station/object N1JOV-7. If no packets are shown the sender has not sent any weather packets the latest 10 day(s).
| Time | Temp. | Humidity | Pressure | Rain* | Wind** | Luminosity | Snow |
|---|---|---|---|---|---|---|---|
| 1788287461 | 25° C | 67% | 1018.4 hPa | 0 mm | - | - | - |
| 1788286861 | 25.56° C | 66% | 1018.3 hPa | 0 mm | - | - | - |
| 1788286261 | 25.56° C | 65% | 1018.3 hPa | 0 mm | - | - | - |
| 1788285662 | 25.56° C | 65% | 1018.3 hPa | 0 mm | - | - | - |
| 1788285062 | 25° C | 57% | 1018.4 hPa | 0 mm | - | - | - |
| 1788284462 | 25° C | 58% | 1018 hPa | 0 mm | - | - | - |
| 1788283862 | 25° C | 58% | 1018.2 hPa | 0 mm | - | - | - |
| 1788283262 | 24.44° C | 60% | 1018.1 hPa | 0 mm | - | - | - |
| 1788282662 | 25° C | 61% | 1018.2 hPa | 0 mm | - | - | - |
| 1788282061 | 23.33° C | 66% | 1018.3 hPa | 0 mm | - | - | - |
| 1788281461 | 24.44° C | 65% | 1018.3 hPa | 0 mm | - | - | - |
| 1788280861 | 24.44° C | 65% | 1018.5 hPa | 0 mm | - | - | - |
| 1788280261 | 25° C | 65% | 1018.7 hPa | 0 mm | - | - | - |
| 1788279661 | 23.89° C | 69% | 1018.6 hPa | 0 mm | - | - | - |
| 1788279062 | 23.33° C | 70% | 1018.7 hPa | 0 mm | - | - | - |
| 1788278462 | 23.33° C | 69% | 1018.6 hPa | 0 mm | - | - | - |
| 1788277862 | 22.78° C | 71% | 1018.5 hPa | 0 mm | - | - | - |
| 1788277262 | 23.33° C | 72% | 1018.6 hPa | 0 mm | - | - | - |
| 1788276662 | 22.22° C | 74% | 1018.6 hPa | 0 mm | - | - | - |
| 1788276062 | 22.22° C | 75% | 1018.6 hPa | 0 mm | - | - | - |
| 1788275461 | 21.11° C | 77% | 1018.6 hPa | 0 mm | - | - | - |
| 1788274861 | 20.56° C | 77% | 1018.7 hPa | 0 mm | - | - | - |
| 1788274261 | 20° C | 78% | 1019 hPa | 0 mm | - | - | - |
| 1788273661 | 20° C | 77% | 1018.8 hPa | 0 mm | - | - | - |
| 1788273061 | 19.44° C | 77% | 1019 hPa | 0 mm | - | - | - |
* Rain latest hour (hover to see other rain measurements)
** Current wind speed in m/s (hover to see current wind gust speed)